User: anonymous   Login
Location: Gollag?dem
(16.8053°N, 80.8024°E)
Time: 02:52:27
(UTC+00:00)
Language:

CREW DRAGON DEMO-1 DEB - Orbit

View from above orbital plane
View from above orbital plane
View from above satellite
View from above satellite

Ground track
Ground track

The orbit data is extracted from the following two-line orbital elements,

1 44064U 19011B   20302.40921184 +.00023072 +00000-0 +20149-3 0  9999
2 44064 051.6343 357.1621 0001342 202.2393 157.8546 15.68844629093751
Epoch (UTC): 28 October 2020 09:49:15
Eccentricity: 0.0001342
inclination: 51.6343°
perigee height: 361 km
apogee height: 363 km
right ascension of ascending node: 357.1621°
argument of perigee: 202.2393°
revolutions per day: 15.68844629
mean anomaly at epoch: 157.8546°
orbit number at epoch: 9375

The dashed part of the orbit path shows where the satellite is in the earth's shadow,  

DLR